Regional Weather Roundup
Issued by NWS Sioux Falls, SD

Home | Current Version | Previous Version | Text Only | Print | Product List | Glossary Off
Versions: 1 2 3 4 5 6 7 8 9 10 11 12 13 14 15 16 17 18 19 20 21 22 23 24 25 26 27 28 29 30 31 32 33 34 35 36 37 38 39 40 41 42 43 44 45 46 47 48 49 50

000
ASUS43 KFSD 051210
RWRFSD

WEATHER ROUNDUP FOR SE SOUTH DAKOTA/SW MINNESOTA/NW IOWA
NATIONAL WEATHER SERVICE SIOUX FALLS SD
600 AM CST MON DEC 05 2016

NOTE: "FAIR" INDICATES FEW OR NO CLOUDS BELOW 12,000 FEET WITH NO
SIGNIFICANT WEATHER AND OR OBSTRUCTIONS TO VISIBILITY.


SDZ038>040-050-052>070-051300-
SOUTHEAST SOUTH DAKOTA

CITY           SKY/WX    TMP DP  RH WIND       PRES   REMARKS
BROOKINGS      CLEAR     31  28  89 SE14      29.59F WCI  21
CHAMBERLAIN    PTCLDY    30  26  83 S6        29.50F WCI  24
6HR MIN TEMP:  29; 6HR MAX TEMP:  35;

HURON          PTCLDY    31  27  85 SE10      29.55F WCI  22
6HR MIN TEMP:  30; 6HR MAX TEMP:  33;

MADISON        FAIR      32  32 100 S9        29.59F WCI  24
MITCHELL       PTCLDY    33  28  81 S12       29.56F WCI  24
6HR MIN TEMP:  31; 6HR MAX TEMP:  34;

SIOUX FALLS    CLOUDY    35  29  78 S10       29.62F WCI  27
6HR MIN TEMP:  29; 6HR MAX TEMP:  36;

WINNER         FAIR      40  22  48 SW12      29.49F
YANKTON        CLOUDY    37  27  65 S12       29.61F
$$

MNZ071-072-080-081-089-090-097-098-051300-
SOUTHWEST MINNESOTA

CITY           SKY/WX    TMP DP  RH WIND       PRES   REMARKS
FAIRMONT       CLOUDY    33  31  92 S13       29.75F WCI  24
JACKSON        CLOUDY    32  30  93 S9        29.72F WCI  24
LUVERNE        CLOUDY    32  30  93 S8        29.65F WCI  25
MARSHALL       CLOUDY    35  31  85 SE9       29.65F WCI  28
6HR MIN TEMP:  32; 6HR MAX TEMP:  36;

MONTEVIDEO     MOCLDY    28  28 100 S10       29.68F WCI  19
PIPESTONE      PTCLDY    34  30  86 S12       29.62F WCI  25
REDWOOD FALLS  MOCLDY    31  28  89 E8        29.70F WCI  23
TRACY          CLOUDY    35  32  88 S15       29.65F WCI  26
WINDOM         CLOUDY    34  32  93 CALM      29.69F
WORTHINGTON    CLOUDY    33  30  88 SE14      29.67F WCI  23
$$

IAZ001>003-012>014-020>022-031-032-NEZ013-014-SDZ071-051300-
NORTHWEST IOWA

CITY           SKY/WX    TMP DP  RH WIND       PRES   REMARKS
CHEROKEE       MOCLDY    33  32  95 S9        29.72F WCI  26
DENISON        PTCLDY    34  30  86 S12G22    29.75S WCI  25
ESTHERVILLE    CLOUDY    32  31  96 S12       29.74F WCI  23
LE MARS        CLOUDY    36  30  80 S15G21    29.69F
ORANGE CITY    CLOUDY    36  32  87 S14       29.67F
SHELDON        CLOUDY    34  34 100 SE20      29.65F WCI  22
SIOUX CITY     CLOUDY    38  32  79 S10       29.70F
6HR MIN TEMP:  30; 6HR MAX TEMP:  38;

SPENCER        CLOUDY    34  31  88 S18       29.73F WCI  23
6HR MIN TEMP:  29; 6HR MAX TEMP:  34;

STORM LAKE     CLOUDY    32  30  93 S9        29.75S WCI  24
$$

ABBREVIATIONS USED IN REMARKS
   TC - TEMPERATURE IN CELSIUS
  WCI - WIND CHILL INDEX
   HX - HEAT INDEX
  VSB - VISIBILITY




USA.gov is the U.S. government's official web portal to all federal, state and local government web resources and services.